Location: Libas
(9.8833°N, 125.9833°E)
Time: 21:11:45
(UTC+00:00)

Cosmos 44 Rocket - Pass Details

Date: 27 October 2020
Orbit: 642 x 748 km, 65.1° (Epoch: 25 November)

Event Time Altitude Azimuth Distance (km) Brightness Sun altitude
Rises 20:40:48 0° 342° (NNW) 3,175 6.4 -11.6°
Reaches altitude 10° 20:43:11 10° 345° (NNW) 2,255 5.7 -11.1°
Maximum altitude 20:48:20 69° 68° (ENE) 797 3.8 -9.8°
Drops below altitude 10° 20:53:28 10° 151° (SSE) 2,242 6.5 -8.6°
Sets 20:55:50 0° 153° (SSE) 3,154 7.3 -8.0°
